Fort Bragg, NC

4:58 PM EDT on April 23, 2017 (GMT -0400)
Simmons Army Air Field

Weather History for KFBG - March, 2013

Change the Weather History Date:

Friday, March 22, 2013

  Actual Average Record
Temperature  
Mean Temperature 39 °F -  
Max Temperature 54 °F 64 °F 85 °F (2011)
Min Temperature 24 °F 43 °F 24 °F (2013)
Degree Days  
Heating Degree Days 26    
Moisture  
Dew Point 14 °F    
Average Humidity 37    
Maximum Humidity 77    
Minimum Humidity 20    
Precipitation  
Precipitation 0.00 in - - ()
Sea Level Pressure  
Sea Level Pressure 30.04 in    
Wind  
Wind Speed 4 mph (WNW)    
Max Wind Speed 10 mph    
Max Gust Speed 18 mph    
Visibility 10 miles    
Events      
Averages and records for this station are not official NWS values.
T = Trace of Precipitation, MM = Missing Value Source: NWS Daily Summary

Daily Weather History Graph

Daily Weather History Graph

Search for Another Location

Airport or City:

Trip Planner

Search our weather history database for the weather conditions in past years. The results will help you decide how hot, cold, wet, or windy it might be!

Date:

Astronomy

Mar. 22, 2013 Rise Set
Actual Time 7:16 AM EDT 7:29 PM EDT
Civil Twilight 6:50 AM EDT 7:54 PM EDT
Nautical Twilight 6:21 AM EDT 8:24 PM EDT
Astronomical Twilight 5:51 AM EDT 8:54 PM EDT
Moon 3:03 PM EDT (3/22) 4:05 AM EDT (3/22)
Length of Visible Light 13h 03m
Length of Day
12h 13m
Waxing Gibbous, 77% of the Moon is Illuminated
Mar 22
Waxing Gibbous
Mar 27
Full
Apr 3
Last Quarter
Apr 10
New
Apr 18
First Quarter

Hourly Weather History & Observations

Time (EDT) Temp. Windchill Dew Point Humidity Pressure Visibility Wind Dir Wind Speed Gust Speed Precip Events Conditions
12:58 AM 31.8 °F 25.4 °F 9.3 °F 39% 29.98 in 10.0 mi North 6.9 mph - N/A   Clear
1:58 AM 30.4 °F - 10.2 °F 43% 29.99 in 10.0 mi North 2.3 mph - N/A   Clear
2:58 AM 29.8 °F - 9.9 °F 43% 30.00 in 10.0 mi Calm Calm - N/A   Clear
3:58 AM 28.8 °F - 10.2 °F 46% 30.00 in 10.0 mi NNW 1.2 mph - N/A   Clear
4:58 AM 27.9 °F - 12.4 °F 52% 30.03 in 10.0 mi Calm Calm - N/A   Clear
5:58 AM 27.0 °F - 11.7 °F 53% 30.06 in 10.0 mi Calm Calm - N/A   Clear
6:58 AM 24.4 °F - 16.0 °F 70% 30.08 in 10.0 mi Calm Calm - N/A   Clear
7:58 AM 25.3 °F - 19.0 °F 77% 30.10 in 10.0 mi Calm Calm - N/A   Clear
8:58 AM 33.1 °F 26.9 °F 12.9 °F 43% 30.11 in 10.0 mi NW 6.9 mph - N/A   Clear
9:58 AM 35.8 °F 31.9 °F 10.9 °F 36% 30.11 in 10.0 mi NNW 4.6 mph - N/A   Clear
10:58 AM 38.8 °F 35.4 °F 9.9 °F 30% 30.10 in 10.0 mi Variable 4.6 mph - N/A   Clear
11:58 AM 42.3 °F 39.4 °F 10.8 °F 28% 30.09 in 10.0 mi Variable 4.6 mph - N/A   Clear
12:58 PM 46.8 °F - 11.1 °F 24% 30.06 in 10.0 mi WNW 10.4 mph - N/A   Clear
1:58 PM 49.3 °F - 12.2 °F 23% 30.04 in 10.0 mi Variable 5.8 mph - N/A   Clear
2:58 PM 51.1 °F - 11.7 °F 21% 30.01 in 10.0 mi Variable 1.2 mph - N/A   Clear
3:58 PM 53.4 °F - 12.9 °F 20% 29.99 in 10.0 mi WSW 8.1 mph 17.3 mph N/A   Clear
4:58 PM 54.0 °F - 13.3 °F 20% 29.99 in 10.0 mi Variable 5.8 mph 18.4 mph N/A   Clear
5:58 PM 53.6 °F - 13.6 °F 21% 29.99 in 10.0 mi West 10.4 mph - N/A   Clear
6:58 PM 51.8 °F - 15.3 °F 23% 30.00 in 10.0 mi WSW 10.4 mph - N/A   Clear
7:58 PM 48.9 °F - 17.4 °F 29% 30.01 in 10.0 mi WSW 8.1 mph - N/A   Clear
8:58 PM 46.9 °F - 17.2 °F 31% 30.01 in 10.0 mi SW 5.8 mph - N/A   Scattered Clouds
9:58 PM 45.0 °F - 17.8 °F 34% 30.04 in 10.0 mi SW 1.2 mph - N/A   Scattered Clouds
10:58 PM 42.4 °F - 19.4 °F 40% 30.04 in 10.0 mi Calm Calm - N/A   Clear
11:58 PM 40.1 °F - 22.6 °F 50% 30.04 in 10.0 mi Calm Calm - N/A   Scattered Clouds